Weather Service Report


783 
ASUS43 KBIS 170210
RWRBIS

NWR BROADCAST TEXT
NATIONAL WEATHER SERVICE BISMARCK ND
900 PM CDT TUE SEP 16 2014

NOTE: "FAIR" INDICATES FEW OR NO CLOUDS BELOW 12,000 FEET WITH NO
SIGNIFICANT WEATHER AND/OR OBSTRUCTIONS TO VISIBILITY.

  
CITY           SKY/WX    TMP DP  RH WIND       PRES   REMARKS
WILLISTON      CLEAR     50  40  68 CALM      29.91S                  
MINOT          CLEAR     55  44  66 N5        29.90F                  
MINOT AFB      CLEAR     52  47  82 S1        29.90S                  
BISMARCK       CLEAR     56  48  74 E7        29.92R                  
DICKINSON      CLEAR     55  45  68 E7        29.92S                  
GARRISON         N/A     57  43  59 NW6       29.91F                  
HETTINGER ARPT MOCLDY    57  46  66 NE7       29.94R                  
JAMESTOWN      CLEAR     52  47  83 NE6       29.93S                  
BEACH            N/A     54  48  82 S3        29.95R                  
CARRINGTON     FAIR      54  46  76 SE8       29.94S                  
CROSBY         FAIR      52  45  76 S7        29.91S HAZE             
HARVEY         FAIR      61  41  48 S5        29.91F                  
HAZEN          MOCLDY    46  43  87 SE3       29.92S                  
LINTON         FAIR      55  48  76 E8        29.91S                  
MANDAN         FAIR      61  46  59 E7        29.93S                  
OAKES            N/A     57  54  88 CALM      29.92R                  
RUGBY          FAIR      57  48  72 NE3       29.91S                  
STANLEY        FAIR      55  41  58 CALM      29.92S                  
TIOGA          FAIR      50  39  66 CALM      29.95S                  
WATFORD CITY   FAIR      55  36  47 E3        29.90S HAZE             
$$
  
CITY           SKY/WX    TMP DP  RH WIND       PRES   REMARKS
GRAND FORKS    CLEAR     54  46  74 S7        29.92R                  
GRAND FORKS AF CLEAR     52  45  75 S8        29.92S                  
DEVILS LAKE    CLEAR     61  45  55 S7        29.90F                  
FARGO          CLEAR     62  45  53 SE8       29.93F                  
CANDO          FAIR      54  43  66 S5        29.92S                  
CAVALIER       FAIR      55  46  71 CALM      29.89S HAZE             
GRAFTON        FAIR      55  43  62 S9        29.90S                  
GWINNER        CLEAR     55  52  88 CALM      29.93R                  
LANGDON        FAIR      52  37  58 SW8       29.91S                  
ROLLA          FAIR      50  41  71 W7        29.93S                  
WALHALLA         N/A     54  46  76 CALM      29.90R                  
$$
  
CITY           SKY/WX    TMP DP  RH WIND       PRES   REMARKS
ABERDEEN       CLEAR     55  52  89 E3        29.91S                  
MOBRIDGE       CLEAR     60  50  69 NE8       29.88S                  
BUFFALO          N/A     66  47  50 NE8       29.89R                  
RAPID CITY     CLEAR     58  48  69 W3        29.95S                  
GLASGOW        CLEAR     61  42  49 SE8       29.88F                  
SIDNEY         CLEAR     55  39  54 NW3       29.92S                  
WOLF POINT     CLEAR     62  43  49 NE3       29.89S                  
MILES CITY     MOCLDY    71  44  37 E6        29.91S                  
BAKER          CLOUDY    62  47  57 CALM      29.95S                  
$$
  
CITY           SKY/WX    TMP DP  RH WIND       PRES   REMARKS
BILLINGS       MOCLDY    76  38  25 SW8       29.94S                  
GREAT FALLS    CLOUDY    68  45  43 S7        29.90S                  
REGINA         PTCLDY    63  46  55 NE2       29.88S                  
ESTEVAN        PTCLDY    61  43  51 S3        29.90S                  
$$



785 
ASUS43 KBIS 170210
RWRND 

NORTH DAKOTA REGIONAL WEATHER ROUNDUP
NATIONAL WEATHER SERVICE BISMARCK ND
900 PM CDT TUE SEP 16 2014

NOTE: "FAIR" INDICATES FEW OR NO CLOUDS BELOW 12,000 FEET WITH NO
SIGNIFICANT WEATHER AND/OR OBSTRUCTIONS TO VISIBILITY.


NDZ001>003-009>011-017-170300-
NORTHWEST NORTH DAKOTA
  
CITY           SKY/WX    TMP DP  RH WIND       PRES   REMARKS
WILLISTON      CLEAR     50  40  68 CALM      29.91S                  
MINOT          CLEAR     55  44  66 N5        29.90F                  
MINOT AFB      CLEAR     52  47  82 S1        29.90S                  
$$
 
NDZ018>021-031>035-040>046-170300-
SOUTHWEST NORTH DAKOTA
  
CITY           SKY/WX    TMP DP  RH WIND       PRES   REMARKS
BISMARCK       CLEAR     56  48  74 E7        29.92R                  
DICKINSON      CLEAR     55  45  68 E7        29.92S                  
GARRISON         N/A     57  43  59 NW6       29.91F                  
HETTINGER ARPT MOCLDY    57  46  66 NE7       29.94R                  
$$
 
NDZ004>008-012>016-024-026-027-054-170300-
NORTHEAST NORTH DAKOTA
  
CITY           SKY/WX    TMP DP  RH WIND       PRES   REMARKS
GRAND FORKS    CLEAR     54  46  74 S7        29.92R                  
GRND FRKS AFB  CLEAR     52  45  75 S8        29.92S                  
DEVILS LAKE    CLEAR     61  45  55 S7        29.90F                  
$$
 
NDZ022-023-025-028>030-036>039-047>053-170300-
SOUTHEAST NORTH DAKOTA
  
CITY           SKY/WX    TMP DP  RH WIND       PRES   REMARKS
FARGO          CLEAR     62  45  53 SE8       29.93F                  
JAMESTOWN      CLEAR     52  47  83 NE6       29.93S                  
$$ 


Return to Home page


Western Regional Climate Center, wrcc@dri.edu